Precipitable_Water
0.39 0.40 0.40 0.41 0.44 0.48 0.48 0.49 0.42 0.34 0.32 0.33 0.41 0.55 0.57 0.61 0.67 0.66 0.71 0.76 0.83 0.89 0.95 1.08 1.08 1.06 1.24 1.24 1.21 1.18 1.18 1.18 1.18 1.14 1.12 1.09 1.10 1.07
0.41 0.40 0.41 0.42 0.44 0.47 0.48 0.50 0.51 0.49 0.41 0.43 0.43 0.51 0.58 0.59 0.62 0.60 0.61 0.67 0.68 0.77 0.91 0.93 1.01 1.05 1.07 1.09 1.20 1.18 1.17 1.16 1.16 1.12 1.12 1.08 1.05 1.01
0.41 0.41 0.41 0.45 0.44 0.48 0.53 0.55 0.52 0.53 0.46 0.42 0.50 0.53 0.52 0.56 0.58 0.61 0.60 0.57 0.65 0.68 0.73 0.87 0.87 0.91 1.01 1.01 1.03 1.18 1.16 1.13 1.13 1.11 1.10 1.08 1.04 1.00
0.38 0.39 0.40 0.43 0.44 0.46 0.49 0.50 0.52 0.54 0.50 0.41 0.46 0.51 0.51 0.51 0.54 0.55 0.55 0.56 0.55 0.63 0.67 0.71 0.73 0.86 0.94 1.00 1.01 1.09 1.14 1.12 1.11 1.09 1.07 1.04 1.02 0.99
0.37 0.38 0.39 0.41 0.41 0.44 0.46 0.47 0.49 0.52 0.54 0.49 0.42 0.48 0.47 0.50 0.45 0.54 0.56 0.54 0.54 0.51 0.58 0.64 0.61 0.66 0.74 0.93 0.97 1.00 1.03 1.07 1.07 1.06 1.03 1.00 0.98 0.96
0.36 0.37 0.37 0.38 0.38 0.38 0.39 0.42 0.45 0.48 0.48 0.45 0.41 0.40 0.40 0.43 0.44 0.44 0.47 0.53 0.50 0.48 0.49 0.54 0.53 0.55 0.58 0.71 0.88 0.97 1.00 1.01 1.03 1.03 1.00 0.97 0.94 0.91
0.36 0.37 0.37 0.37 0.37 0.37 0.37 0.37 0.39 0.41 0.42 0.43 0.41 0.40 0.38 0.38 0.36 0.42 0.45 0.50 0.48 0.46 0.44 0.50 0.50 0.53 0.55 0.59 0.67 0.77 0.95 1.02 1.00 0.99 0.94 0.92 0.90 0.87
0.33 0.35 0.37 0.37 0.38 0.38 0.38 0.39 0.41 0.39 0.38 0.38 0.39 0.40 0.40 0.40 0.40 0.40 0.43 0.42 0.37 0.46 0.42 0.41 0.48 0.47 0.55 0.61 0.67 0.75 0.86 0.93 0.98 0.95 0.91 0.89 0.87 0.85
0.32 0.32 0.32 0.34 0.36 0.37 0.38 0.40 0.43 0.48 0.48 0.43 0.39 0.41 0.43 0.44 0.43 0.38 0.40 0.42 0.39 0.44 0.45 0.39 0.45 0.43 0.53 0.59 0.65 0.68 0.75 0.82 0.91 0.91 0.87 0.87 0.85 0.82
0.33 0.33 0.33 0.34 0.37 0.36 0.36 0.38 0.42 0.46 0.49 0.50 0.47 0.48 0.50 0.50 0.47 0.42 0.42 0.43 0.42 0.45 0.46 0.35 0.42 0.41 0.48 0.56 0.64 0.69 0.71 0.75 0.82 0.83 0.82 0.81 0.79 0.76
0.33 0.34 0.34 0.35 0.36 0.37 0.37 0.38 0.40 0.42 0.50 0.52 0.53 0.54 0.53 0.51 0.46 0.42 0.36 0.36 0.35 0.40 0.45 0.40 0.42 0.42 0.47 0.52 0.63 0.70 0.72 0.69 0.70 0.73 0.77 0.76 0.74 0.71
0.30 0.31 0.33 0.34 0.35 0.38 0.39 0.38 0.35 0.40 0.44 0.46 0.49 0.52 0.52 0.49 0.46 0.43 0.39 0.34 0.37 0.35 0.43 0.41 0.42 0.44 0.41 0.50 0.55 0.62 0.61 0.61 0.62 0.67 0.72 0.72 0.70 0.64
0.27 0.28 0.31 0.34 0.36 0.39 0.41 0.40 0.40 0.43 0.44 0.45 0.44 0.46 0.47 0.46 0.44 0.43 0.43 0.42 0.41 0.39 0.46 0.47 0.46 0.47 0.46 0.44 0.50 0.55 0.56 0.56 0.55 0.63 0.64 0.65 0.65 0.62
0.26 0.29 0.32 0.35 0.38 0.40 0.41 0.43 0.43 0.44 0.43 0.42 0.41 0.39 0.39 0.38 0.40 0.42 0.45 0.47 0.49 0.48 0.53 0.54 0.49 0.49 0.47 0.44 0.44 0.50 0.51 0.55 0.58 0.56 0.56 0.58 0.59 0.57
0.29 0.31 0.34 0.37 0.40 0.41 0.42 0.42 0.41 0.39 0.37 0.35 0.35 0.36 0.37 0.40 0.43 0.44 0.46 0.48 0.50 0.52 0.53 0.53 0.51 0.50 0.48 0.45 0.43 0.44 0.45 0.48 0.52 0.53 0.53 0.53 0.52 0.52
0.29 0.32 0.36 0.39 0.41 0.41 0.41 0.40 0.39 0.37 0.36 0.36 0.37 0.41 0.43 0.43 0.42 0.44 0.43 0.45 0.45 0.45 0.50 0.51 0.51 0.50 0.46 0.46 0.45 0.42 0.45 0.43 0.48 0.49 0.50 0.50 0.50 0.49
0.29 0.32 0.35 0.37 0.39 0.39 0.39 0.38 0.37 0.36 0.36 0.40 0.40 0.40 0.41 0.42 0.42 0.44 0.44 0.44 0.41 0.41 0.42 0.45 0.48 0.49 0.47 0.46 0.41 0.43 0.43 0.44 0.46 0.46 0.46 0.44 0.44 0.44
0.28 0.29 0.32 0.35 0.38 0.38 0.36 0.36 0.36 0.35 0.38 0.40 0.40 0.40 0.40 0.40 0.40 0.42 0.43 0.42 0.40 0.40 0.40 0.42 0.43 0.42 0.42 0.43 0.45 0.41 0.42 0.42 0.44 0.44 0.43 0.40 0.39 0.42
0.26 0.29 0.32 0.34 0.38 0.38 0.36 0.36 0.35 0.37 0.39 0.40 0.40 0.40 0.40 0.40 0.40 0.40 0.40 0.40 0.39 0.39 0.40 0.42 0.41 0.39 0.35 0.32 0.38 0.45 0.40 0.40 0.41 0.40 0.41 0.39 0.37 0.37
0.27 0.29 0.32 0.34 0.37 0.38 0.36 0.35 0.36 0.37 0.39 0.40 0.40 0.41 0.41 0.40 0.39 0.38 0.38 0.38 0.38 0.38 0.38 0.40 0.40 0.39 0.36 0.35 0.34 0.38 0.44 0.40 0.39 0.37 0.37 0.38 0.37 0.36
0.26 0.29 0.33 0.35 0.37 0.39 0.37 0.37 0.36 0.38 0.39 0.40 0.41 0.41 0.41 0.40 0.39 0.39 0.39 0.39 0.38 0.38 0.36 0.37 0.39 0.42 0.42 0.40 0.35 0.35 0.38 0.42 0.41 0.38 0.36 0.29 0.22 0.21
0.26 0.29 0.33 0.36 0.37 0.39 0.38 0.37 0.36 0.39 0.39 0.40 0.40 0.41 0.41 0.41 0.39 0.39 0.39 0.38 0.37 0.37 0.36 0.37 0.39 0.39 0.38 0.36 0.33 0.33 0.33 0.33 0.30 0.25 0.23 0.22 0.20 0.18
0.26 0.29 0.33 0.36 0.38 0.40 0.38 0.37 0.36 0.38 0.40 0.40 0.40 0.41 0.41 0.39 0.40 0.40 0.39 0.37 0.36 0.34 0.33 0.32 0.31 0.30 0.26 0.25 0.22 0.20 0.19 0.19 0.19 0.19 0.19 0.20 0.20 0.19
Wind_Speed
50 52 52 52 52 51 51 51 49 48 45 42 40 38 37 36 36 36 37 39 41 43 41 44 47 49 56 59 58 57 52 47 43 43 36 38 37 36
51 51 51 50 50 48 47 46 43 41 40 36 36 35 35 35 34 34 33 38 39 41 42 44 46 38 42 43 58 55 56 52 49 46 45 36 38 36
49 49 48 48 46 44 43 40 40 39 37 36 35 33 33 34 34 33 31 30 35 38 41 40 43 44 45 42 41 55 53 52 50 48 45 47 41 37
46 45 44 42 41 40 38 37 36 34 33 35 34 34 34 32 31 32 31 30 29 32 35 38 39 40 41 38 38 43 53 50 50 47 44 44 42 38
44 43 41 39 39 36 35 33 32 32 32 34 33 32 30 30 30 30 31 29 28 28 32 33 37 40 42 39 39 40 44 47 48 47 45 42 40 37
42 40 39 38 37 36 36 35 35 34 34 33 32 31 29 29 29 29 29 29 27 26 28 31 32 35 38 42 43 39 44 46 48 47 44 43 40 38
40 39 38 37 37 37 37 37 37 37 36 35 34 32 31 29 27 27 27 28 27 26 25 26 28 31 34 37 42 42 42 47 45 47 44 41 41 39
40 39 39 39 39 40 40 39 40 40 39 38 36 34 32 30 28 27 26 24 25 24 25 26 27 30 31 34 37 39 42 47 50 52 47 43 39 40
41 40 40 41 41 42 41 41 41 41 39 38 37 35 32 30 28 27 25 25 25 25 25 27 27 28 28 31 35 36 39 44 47 50 50 47 42 39
41 41 41 42 42 42 42 42 41 38 37 36 35 34 32 30 29 27 26 25 24 24 23 23 24 25 26 28 31 34 37 41 45 47 48 46 42 40
39 39 40 41 42 42 42 41 39 36 33 31 30 29 29 28 27 26 24 23 22 21 21 22 21 21 21 22 27 31 33 37 40 44 45 44 42 39
39 40 40 41 41 40 38 36 35 33 28 25 23 23 24 25 25 25 24 23 22 20 20 21 22 22 21 19 21 26 30 36 39 42 45 42 39 36
41 41 40 40 39 37 34 33 31 27 24 20 20 21 21 21 22 22 22 22 21 21 20 20 19 18 18 18 19 23 30 32 36 39 42 41 38 35
42 41 39 38 36 32 31 29 26 22 19 16 15 15 14 15 16 17 18 18 18 18 18 17 16 17 17 19 21 24 27 30 33 37 39 37 35 31
39 38 36 34 30 27 27 25 22 19 16 14 12 11 10 10 10 10 12 12 12 12 13 13 15 16 19 19 22 24 26 28 32 34 34 33 31 28
36 34 31 28 26 25 24 21 18 16 14 12 10 9 8 7 7 8 8 8 7 7 9 10 14 16 17 20 23 24 26 27 30 32 31 28 27 25
34 30 27 25 24 23 22 18 16 13 11 10 10 8 5 3 4 6 7 6 7 8 9 11 14 15 17 20 23 23 23 26 28 27 26 24 23 22
30 27 25 23 22 22 21 15 13 10 9 9 8 4 1 2 4 6 8 8 9 10 11 13 14 17 18 17 20 22 22 23 24 24 23 21 20 21
28 25 23 22 21 20 17 12 10 8 7 6 3 2 3 4 6 8 10 11 11 12 12 13 14 15 18 18 18 18 21 22 21 19 18 18 17 17
26 24 22 21 20 17 15 11 8 6 5 3 1 3 5 7 9 11 12 13 13 13 13 14 14 15 16 17 17 16 18 19 18 17 16 15 15 15
25 23 21 20 18 15 13 10 8 6 4 2 3 5 6 8 11 12 14 14 15 15 15 14 14 16 16 18 17 16 16 16 16 16 15 14 13 13
24 23 21 19 17 14 12 10 9 7 6 6 6 7 7 9 11 12 13 14 14 14 14 14 13 13 15 16 16 16 15 14 14 13 11 11 12 12
24 23 20 19 16 14 12 11 10 10 9 9 9 9 9 10 11 12 12 12 12 13 13 13 13 14 14 15 15 14 14 12 11 10 9 8 9 11
Wind_Direction
305 304 305 304 303 302 301 300 299 299 296 294 290 284 285 283 280 276 268 262 257 251 246 242 242 243 237 235 236 234 234 234 230 231 230 228 228 230
307 307 307 307 306 304 301 300 298 296 296 296 294 289 284 282 280 278 276 266 261 254 249 246 238 244 236 238 231 233 233 232 231 230 228 227 227 230
310 310 310 310 309 306 304 300 298 295 293 293 293 292 290 285 278 277 275 276 261 255 250 244 242 243 240 237 240 230 228 229 229 230 230 226 229 230
315 315 315 315 313 311 307 303 300 296 294 295 294 291 289 287 282 275 273 274 268 257 251 244 244 240 237 239 236 227 227 228 226 226 225 224 225 226
316 317 316 315 315 312 311 308 304 298 295 295 294 294 291 287 285 279 270 270 269 263 254 251 247 245 241 240 234 231 227 224 221 220 219 218 218 217
316 316 315 315 314 312 309 305 303 298 295 294 294 288 291 293 286 282 274 265 267 265 259 252 251 248 243 238 237 235 228 224 219 218 218 216 219 218
316 316 315 313 312 310 308 305 302 298 293 290 289 287 285 290 287 281 279 267 263 265 261 254 251 249 248 245 240 237 232 223 220 214 215 216 217 217
316 315 314 313 312 310 306 303 300 297 292 287 285 283 282 281 285 280 275 270 261 263 258 259 256 253 251 248 242 236 233 226 223 221 218 214 218 214
314 314 312 312 311 310 308 306 302 296 290 286 280 279 276 276 278 278 272 269 261 262 262 260 257 254 252 249 242 237 230 225 220 218 217 217 216 216
314 313 313 313 313 312 310 308 306 300 292 285 278 275 272 272 270 273 272 268 263 259 261 257 257 255 255 249 242 232 227 221 216 214 212 212 214 215
315 315 315 315 315 314 312 311 309 304 296 288 280 272 269 268 267 268 269 262 259 256 256 255 254 255 253 250 238 225 219 211 207 207 207 208 210 211
316 315 315 316 316 316 315 314 313 310 301 291 281 275 270 268 265 263 262 258 254 256 256 253 249 249 247 244 227 215 209 207 206 204 203 204 208 211
315 315 316 317 317 317 317 317 316 314 308 296 287 281 273 267 264 262 254 252 250 252 256 251 245 238 231 217 209 203 200 199 200 199 199 203 205 208
315 314 314 316 317 317 319 320 320 317 314 306 298 290 279 269 262 257 246 247 250 253 248 240 233 221 209 199 195 192 191 191 192 195 196 197 202 209
318 316 315 316 316 318 320 321 322 322 318 313 307 298 287 275 259 243 237 241 246 244 228 224 213 202 196 194 188 186 183 187 191 189 191 197 204 213
322 321 319 318 317 318 321 322 320 323 322 318 313 305 295 274 248 232 227 222 213 204 202 197 190 187 185 184 181 181 184 191 185 189 194 201 210 222
323 323 322 321 320 320 321 318 319 320 321 323 319 310 297 255 218 198 185 178 172 168 166 166 168 169 171 173 175 178 181 180 186 189 196 204 213 223
325 324 323 322 321 321 321 313 317 319 322 328 332 330 312 166 161 165 164 156 152 151 150 155 158 161 163 164 173 177 182 183 190 198 204 210 220 225
326 324 323 323 321 322 321 309 310 315 322 335 350 46 107 127 139 145 151 148 141 141 142 147 152 158 162 167 172 177 181 187 192 198 206 213 215 219
325 322 321 322 320 319 318 305 297 299 306 333 68 103 118 125 128 131 134 134 133 133 134 137 144 153 158 162 165 167 174 179 185 188 191 196 200 205
322 320 318 319 317 312 311 297 279 271 257 233 163 136 129 129 129 130 129 129 129 130 129 130 133 139 144 149 151 155 162 170 178 183 187 192 201 212
316 317 313 314 312 305 302 287 261 248 234 210 186 169 154 147 143 140 138 136 134 133 133 135 137 141 147 151 152 153 156 160 165 173 185 205 220 230
310 311 309 307 306 298 289 278 251 237 226 210 198 185 177 167 161 157 152 149 147 145 143 142 141 143 145 150 153 158 161 168 179 191 207 223 235 245